{"data":{"norad_id":65100,"epoch":"2026-05-25T01:44:18.536064Z","epoch_age_seconds":68924,"freshness":"FRESH","line1":"1 65100U 25167Y   26145.07243676  .00012292  00000+0  37437-3 0  9998","line2":"2 65100  53.1630  31.2115 0001179  77.9185 282.1949 15.34397016 45182","mean_motion":15.34397016,"eccentricity":0.0001179,"inclination_deg":53.163,"raan_deg":31.2115,"arg_perigee_deg":77.9185,"mean_anomaly_deg":282.1949,"bstar":0.00037437,"rev_number":4518,"period_min":93.847940590625,"perigee_km":461.90557318834,"apogee_km":463.51864540832,"semimajor_km":6840.8491092983,"source":"CELESTRAK","updated_at":"2026-05-25T13:38:20.687052Z"}}